LW9ERO Weather Reports


time (UTC)temp
C
wind
direction
speed
KPH
gust
KPH
rain 1hr
cm
rain 24hr
cm
rain mn
cm
humidity
%
barometer
mb
20260508020248 8 248 17.7 38.6 0.00 0.03 0.03 90 1007.5
20260508015242 8 270 22.5 46.7 0.00 0.03 0.03 91 1007.4
20260508014236 8 225 20.9 38.6 0.00 0.03 0.03 93 1007.2
20260508013231 8 248 17.7 43.5 0.00 0.03 0.03 94 1007.8
20260508012224 8 225 17.7 35.4 0.00 0.03 0.03 94 1007.6
20260508011219 8 248 16.1 33.8 0.00 0.03 0.03 95 1007.3
20260508010211 8 225 12.9 43.5 0.00 0.03 0.03 95 1007.4
20260508005204 8 203 12.9 32.2 0.00 0.03 0.03 95 1007.5
20260508004159 9 225 17.7 40.2 0.00 0.03 0.03 95 1007.5
20260508003153 9 225 16.1 37.0 0.00 0.03 0.03 95 1007.4
20260508002147 9 270 19.3 38.6 0.00 0.03 0.03 94 1007.5
20260508001141 10 248 17.7 43.5 0.00 0.03 0.03 92 1007.4
20260508000134 10 270 17.7 37.0 0.00 0.03 0.03 90 1007.4
20260507235128 10 248 25.7 46.7 0.00 0.03 0.03 90 1007.2
20260507234122 10 270 22.5 35.4 0.00 0.03 0.03 89 1007.3
20260507233118 10 293 14.5 35.4 0.00 0.03 0.03 90 1007.0
20260507232110 10 248 17.7 37.0 0.00 0.03 0.03 89 1007.4
20260507231103 10 248 17.7 46.7 0.00 0.03 0.03 89 1007.3
20260507230110 10 203 12.9 40.2 0.00 0.03 0.03 89 1007.1
20260507225050 11 270 25.7 37.0 0.00 0.05 0.03 90 1006.5
20260507224044 11 270 17.7 32.2 0.00 0.05 0.03 90 1006.5
20260507223051 11 248 16.1 33.8 0.00 0.05 0.03 89 1006.1
20260507222047 11 135 22.5 38.6 0.00 0.05 0.03 89 1006.3
20260507221033 11 225 12.9 35.4 0.00 0.05 0.03 89 1006.1
20260507220026 11 225 16.1 43.5 0.00 0.05 0.03 88 1005.9
20260507215014 11 315 17.7 43.5 0.00 0.05 0.03 87 1006.1
20260507214010 11 225 17.7 38.6 0.00 0.05 0.03 87 1006.0
20260507213001 11 248 17.7 37.0 0.00 0.05 0.03 87 1005.7
20260507211955 11 248 19.3 35.4 0.00 0.05 0.03 88 1005.8
20260507210949 11 270 17.7 43.5 0.00 0.05 0.03 88 1006.0
20260507205943 11 270 24.1 33.8 0.00 0.05 0.03 90 1005.9
20260507204936 11 270 17.7 43.5 0.00 0.05 0.03 89 1005.5
20260507203930 11 270 24.1 43.5 0.00 0.05 0.03 89 1005.7
20260507202926 11 270 22.5 46.7 0.00 0.05 0.03 88 1005.7
20260507201920 11 270 17.7 43.5 0.00 0.05 0.03 91 1005.3
20260507200912 11 270 24.1 43.5 0.00 0.05 0.03 94 1005.1
20260507195905 11 225 19.3 38.6 0.00 0.05 0.03 94 1004.9
20260507194858 11 0 16.1 38.6 0.00 0.05 0.03 95 1004.8
20260507193854 11 248 14.5 27.4 0.00 0.05 0.03 94 1004.9
20260507192846 12 248 12.9 27.4 0.00 0.05 0.03 93 1004.5
20260507191840 12 270 12.9 29.0 0.00 0.05 0.03 91 1005.2
20260507190833 12 270 16.1 33.8 0.00 0.05 0.03 89 1005.6
20260507185828 12 270 16.1 29.0 0.00 0.05 0.03 89 1005.9
20260507184822 12 293 16.1 29.0 0.00 0.05 0.03 89 1006.3
20260507183818 12 248 14.5 32.2 0.00 0.05 0.03 88 1006.2
20260507182809 13 293 16.1 27.4 0.00 0.05 0.03 85 1006.2
20260507181803 13 270 9.7 29.0 0.00 0.05 0.03 85 1006.6
20260507180757 12 270 17.7 29.0 0.00 0.05 0.03 85 1006.3
20260507175750 13 270 16.1 32.2 0.00 0.05 0.03 84 1006.4
20260507174744 13 225 11.3 25.7 0.00 0.05 0.03 85 1006.2
20260507173738 12 225 17.7 33.8 0.00 0.05 0.03 83 1006.0
20260507172732 13 293 16.1 35.4 0.00 0.05 0.03 82 1005.9
20260507171726 13 225 16.1 35.4 0.00 0.05 0.03 81 1005.9
20260507170726 13 225 17.7 32.2 0.00 0.05 0.03 80 1006.0
20260507165714 13 248 17.7 37.0 0.00 0.05 0.03 79 1006.0
20260507164709 13 248 12.9 38.6 0.00 0.05 0.03 79 1006.0
20260507163701 13 270 17.7 40.2 0.00 0.05 0.03 78 1006.3
20260507162655 13 293 20.9 33.8 0.00 0.05 0.03 77 1006.6
20260507161649 13 270 24.1 35.4 0.00 0.05 0.03 77 1006.4
20260507160643 13 293 19.3 38.6 0.00 0.05 0.03 76 1006.3
20260507155637 14 270 22.5 38.6 0.00 0.05 0.03 76 1006.4
20260507154630 14 270 19.3 29.0 0.00 0.05 0.03 75 1006.3
20260507153625 14 248 17.7 35.4 0.00 0.05 0.03 75 1006.4
20260507152620 14 270 8.0 27.4 0.00 0.05 0.03 76 1006.4
20260507151612 14 270 16.1 32.2 0.00 0.05 0.03 75 1006.2
20260507150605 14 225 17.7 32.2 0.00 0.05 0.03 76 1005.7
20260507145559 14 270 12.9 32.2 0.00 0.05 0.03 77 1006.1
20260507144553 13 203 17.7 27.4 0.00 0.05 0.03 77 1006.3
20260507143547 13 270 14.5 33.8 0.00 0.05 0.03 77 1006.4
20260507142541 13 248 17.7 33.8 0.00 0.05 0.03 78 1006.4
20260507141534 13 248 17.7 33.8 0.00 0.05 0.03 77 1006.3
20260507140528 13 270 9.7 24.1 0.00 0.05 0.03 78 1006.8
20260507135523 13 248 11.3 29.0 0.00 0.05 0.03 79 1006.7
20260507134519 13 180 16.1 20.9 0.00 0.05 0.03 78 1007.3
20260507133510 13 270 6.4 24.1 0.00 0.05 0.03 79 1007.2
20260507132503 13 248 16.1 22.5 0.00 0.05 0.03 79 1007.5
20260507131457 13 248 12.9 27.4 0.00 0.05 0.03 80 1007.1
20260507130452 13 248 14.5 24.1 0.00 0.05 0.03 81 1006.5
20260507125444 13 270 9.7 22.5 0.00 0.05 0.03 81 1006.1
20260507124438 12 248 12.9 27.4 0.00 0.05 0.03 81 1005.9
20260507123432 12 315 12.9 38.6 0.00 0.05 0.03 82 1004.9
20260507122426 12 203 17.7 37.0 0.00 0.05 0.03 82 1004.9
20260507121421 12 225 17.7 33.8 0.00 0.05 0.03 84 1004.4
20260507120414 12 293 16.1 32.2 0.00 0.05 0.03 84 1004.7
20260507115408 12 270 12.9 29.0 0.00 0.05 0.03 85 1004.4
20260507114402 13 248 16.1 33.8 0.00 0.05 0.03 86 1004.0
20260507113355 13 248 16.1 40.2 0.00 0.05 0.03 86 1003.8
20260507112349 13 158 19.3 35.4 0.00 0.05 0.03 89 1005.1
20260507111355 13 248 12.9 33.8 0.00 0.05 0.03 88 1005.7
20260507110337 13 270 16.1 29.0 0.00 0.05 0.03 90 1006.2
20260507105330 13 248 17.7 32.2 0.00 0.05 0.03 90 1006.0
20260507104324 14 270 14.5 29.0 0.00 0.05 0.03 91 1006.0
20260507103321 14 225 17.7 32.2 0.00 0.05 0.03 91 1005.5
20260507102312 14 225 12.9 32.2 0.00 0.05 0.03 92 1006.0
20260507101306 14 203 19.3 32.2 0.00 0.05 0.03 92 1006.1
20260507100259 14 225 17.7 35.4 0.00 0.05 0.03 93 1005.5
20260507095253 13 270 14.5 25.7 0.00 0.05 0.03 95 1005.6
20260507094248 13 270 12.9 25.7 0.00 0.05 0.03 96 1005.6
20260507093242 13 248 12.9 22.5 0.00 0.05 0.03 96 1006.4
20260507092236 13 248 8.0 20.9 0.00 0.05 0.03 97 1006.0
20260507091229 13 270 9.7 17.7 0.00 0.05 0.03 97 1006.2
20260507090239 13 293 9.7 17.7 0.00 0.05 0.03 97 1006.5
20260507085221 13 270 9.7 17.7 0.00 0.05 0.03 97 1006.3
20260507084211 13 248 8.0 17.7 0.00 0.05 0.03 97 1006.5
20260507083204 13 270 9.7 17.7 0.00 0.05 0.03 97 1006.5
20260507082158 13 293 11.3 20.9 0.00 0.05 0.03 97 1006.6
20260507081152 13 270 8.0 17.7 0.00 0.05 0.03 97 1006.1
20260507080145 13 270 9.7 17.7 0.00 0.05 0.03 97 1006.1
20260507075139 13 248 8.0 20.9 0.00 0.05 0.03 98 1005.8
20260507074133 13 270 9.7 14.5 0.00 0.05 0.03 97 1006.3
20260507073126 13 203 8.0 12.9 0.00 0.05 0.03 97 1006.1
20260507072120 13 203 6.4 12.9 0.00 0.05 0.03 97 1006.1
20260507071114 13 180 8.0 14.5 0.00 0.05 0.03 97 1006.0
20260507070121 14 225 4.8 14.5 0.00 0.05 0.03 97 1006.4
20260507065102 14 270 6.4 17.7 0.03 0.05 0.03 97 1005.5
20260507064055 14 225 6.4 11.3 0.03 0.05 0.03 96 1005.3
20260507063049 14 225 6.4 11.3 0.03 0.05 0.03 96 1005.8
20260507062043 14 225 4.8 11.3 0.03 0.05 0.03 96 1006.1
20260507061037 15 203 3.2 6.4 0.03 0.05 0.03 96 1005.7
20260507060032 15 225 4.8 6.4 0.03 0.05 0.03 96 1006.2
20260507055030 15 180 3.2 9.7 0.00 0.03 0.00 96 1005.9
20260507054026 15 203 3.2 12.9 0.00 0.03 0.00 95 1006.2
20260507053012 15 180 1.6 6.4 0.00 0.03 0.00 95 1006.4
20260507052009 15 180 3.2 6.4 0.00 0.03 0.00 95 1005.9
20260507050959 15 180 3.2 6.4 0.00 0.03 0.00 95 1005.7
20260507045954 15 180 3.2 6.4 0.00 0.03 0.00 95 1005.4
20260507044949 15 180 3.2 12.9 0.00 0.03 0.00 95 1004.3
20260507043942 15 203 6.4 11.3 0.00 0.03 0.00 95 1003.4
20260507042935 15 203 4.8 9.7 0.00 0.03 0.00 96 1003.5
20260507041929 15 158 1.6 6.4 0.00 0.03 0.00 95 1003.7
20260507040923 15 203 3.2 6.4 0.00 0.03 0.00 95 1005.0
20260507035917 15 158 1.6 6.4 0.00 0.03 0.00 95 1005.9
20260507034911 15 158 0.0 6.4 0.00 0.03 0.00 95 1005.8
20260507033904 15 203 3.2 6.4 0.00 0.03 0.00 94 1005.5
20260507032858 15 203 3.2 6.4 0.00 0.03 0.00 94 1005.7
20260507031852 15 225 3.2 6.4 0.00 0.03 0.00 93 1005.8
20260507030846 15 180 0.0 3.2 0.00 0.03 0.00 93 1005.0
20260507025840 15 225 0.0 3.2 0.00 0.03 2.29 92 1004.4
20260507024834 16 225 1.6 6.4 0.00 0.03 2.29 92 1003.9
20260507023827 16 225 1.6 3.2 0.00 0.03 2.29 90 1004.4
20260507022822 16 203 0.0 6.4 0.00 0.03 2.29 89 1004.8
20260507021814 16 203 1.6 6.4 0.00 0.03 2.29 89 1004.8
20260507020809 16 135 0.0 3.2 0.00 0.03 2.29 88 1004.9